owner,sensor,date,latitude,longitude,sea_surface_height_above_sea_level,qcFlag 
WAVCIS,ioos:station:WAVCIS:CSI09:1,2015-12-01T00:00:00Z,29.1015,-89.9782,-9999.0,1111122 
WAVCIS,ioos:station:WAVCIS:CSI09:1,2015-12-01T01:00:00Z,29.1015,-89.9782,-9999.0,1111122 
WAVCIS,ioos:station:WAVCIS:CSI09:1,2015-12-01T02:00:00Z,29.1015,-89.9782,-9999.0,1111122 
WAVCIS,ioos:station:WAVCIS:CSI09:1,2015-12-01T03:00:00Z,29.1015,-89.9782,-9999.0,1111122 
WAVCIS,ioos:station:WAVCIS:CSI09:1,2015-12-01T04:00:00Z,29.1015,-89.9782,-9999.0,1111122 
WAVCIS,ioos:station:WAVCIS:CSI09:1,2015-12-01T05:00:00Z,29.1015,-89.9782,-9999.0,1111122 
WAVCIS,ioos:station:WAVCIS:CSI09:1,2015-12-01T06:00:00Z,29.1015,-89.9782,-9999.0,1111122 
WAVCIS,ioos:station:WAVCIS:CSI09:1,2015-12-01T07:00:00Z,29.1015,-89.9782,-9999.0,1111122 
WAVCIS,ioos:station:WAVCIS:CSI09:1,2015-12-01T08:00:00Z,29.1015,-89.9782,-9999.0,1111122 
WAVCIS,ioos:station:WAVCIS:CSI09:1,2015-12-01T09:00:00Z,29.1015,-89.9782,-9999.0,1111122 
WAVCIS,ioos:station:WAVCIS:CSI09:1,2015-12-01T10:00:00Z,29.1015,-89.9782,-9999.0,1111122 
WAVCIS,ioos:station:WAVCIS:CSI09:1,2015-12-01T11:00:00Z,29.1015,-89.9782,-9999.0,1111122 
WAVCIS,ioos:station:WAVCIS:CSI09:1,2015-12-01T12:00:00Z,29.1015,-89.9782,-9999.0,1111122 
WAVCIS,ioos:station:WAVCIS:CSI09:1,2015-12-01T13:00:00Z,29.1015,-89.9782,-9999.0,1111122 
WAVCIS,ioos:station:WAVCIS:CSI09:1,2015-12-01T14:00:00Z,29.1015,-89.9782,-9999.0,1111122 
WAVCIS,ioos:station:WAVCIS:CSI09:1,2015-12-01T15:00:00Z,29.1015,-89.9782,-9999.0,1111122 
WAVCIS,ioos:station:WAVCIS:CSI09:1,2015-12-01T16:00:00Z,29.1015,-89.9782,-9999.0,1111122 
WAVCIS,ioos:station:WAVCIS:CSI09:1,2015-12-01T17:00:00Z,29.1015,-89.9782,-9999.0,1111122 
WAVCIS,ioos:station:WAVCIS:CSI09:1,2015-12-01T18:00:00Z,29.1015,-89.9782,-9999.0,1111122 
WAVCIS,ioos:station:WAVCIS:CSI09:1,2015-12-01T19:00:00Z,29.1015,-89.9782,-9999.0,1111122 
WAVCIS,ioos:station:WAVCIS:CSI09:1,2015-12-01T20:00:00Z,29.1015,-89.9782,-9999.0,1111122 
WAVCIS,ioos:station:WAVCIS:CSI09:1,2015-12-01T21:00:00Z,29.1015,-89.9782,-9999.0,1111122 
WAVCIS,ioos:station:WAVCIS:CSI09:1,2015-12-01T22:00:00Z,29.1015,-89.9782,-9999.0,1111122 
WAVCIS,ioos:station:WAVCIS:CSI09:1,2015-12-01T23:00:00Z,29.1015,-89.9782,-9999.0,1111122 
WAVCIS,ioos:station:WAVCIS:CSI09:1,2015-12-02T00:00:00Z,29.1015,-89.9782,-9999.0,1111122 
WAVCIS,ioos:station:WAVCIS:CSI09:1,2015-12-02T01:00:00Z,29.1015,-89.9782,-9999.0,1111122 
WAVCIS,ioos:station:WAVCIS:CSI09:1,2015-12-02T02:00:00Z,29.1015,-89.9782,-9999.0,1111122 
WAVCIS,ioos:station:WAVCIS:CSI09:1,2015-12-02T03:00:00Z,29.1015,-89.9782,-9999.0,1111122 
WAVCIS,ioos:station:WAVCIS:CSI09:1,2015-12-02T04:00:00Z,29.1015,-89.9782,-9999.0,1111122 
WAVCIS,ioos:station:WAVCIS:CSI09:1,2015-12-02T05:00:00Z,29.1015,-89.9782,-9999.0,1111122 
WAVCIS,ioos:station:WAVCIS:CSI09:1,2015-12-02T06:00:00Z,29.1015,-89.9782,-9999.0,1111122 
WAVCIS,ioos:station:WAVCIS:CSI09:1,2015-12-02T07:00:00Z,29.1015,-89.9782,-9999.0,1111122 
WAVCIS,ioos:station:WAVCIS:CSI09:1,2015-12-02T08:00:00Z,29.1015,-89.9782,-9999.0,1111122 
WAVCIS,ioos:station:WAVCIS:CSI09:1,2015-12-02T09:00:00Z,29.1015,-89.9782,-9999.0,1111122 
WAVCIS,ioos:station:WAVCIS:CSI09:1,2015-12-02T10:00:00Z,29.1015,-89.9782,-9999.0,1111122 
WAVCIS,ioos:station:WAVCIS:CSI09:1,2015-12-02T11:00:00Z,29.1015,-89.9782,-9999.0,1111122 
WAVCIS,ioos:station:WAVCIS:CSI09:1,2015-12-02T12:00:00Z,29.1015,-89.9782,-9999.0,1111122 
WAVCIS,ioos:station:WAVCIS:CSI09:1,2015-12-02T13:00:00Z,29.1015,-89.9782,-9999.0,1111122 
WAVCIS,ioos:station:WAVCIS:CSI09:1,2015-12-02T14:00:00Z,29.1015,-89.9782,-9999.0,1111122 
WAVCIS,ioos:station:WAVCIS:CSI09:1,2015-12-02T15:00:00Z,29.1015,-89.9782,-9999.0,1111122 
WAVCIS,ioos:station:WAVCIS:CSI09:1,2015-12-02T16:00:00Z,29.1015,-89.9782,-9999.0,1111122 
WAVCIS,ioos:station:WAVCIS:CSI09:1,2015-12-02T17:00:00Z,29.1015,-89.9782,-9999.0,1111122 
WAVCIS,ioos:station:WAVCIS:CSI09:1,2015-12-02T18:00:00Z,29.1015,-89.9782,-9999.0,1111122 
WAVCIS,ioos:station:WAVCIS:CSI09:1,2015-12-02T19:00:00Z,29.1015,-89.9782,-9999.0,1111122 
WAVCIS,ioos:station:WAVCIS:CSI09:1,2015-12-02T20:00:00Z,29.1015,-89.9782,-9999.0,1111122 
WAVCIS,ioos:station:WAVCIS:CSI09:1,2015-12-02T21:00:00Z,29.1015,-89.9782,-9999.0,1111122 
WAVCIS,ioos:station:WAVCIS:CSI09:1,2015-12-02T22:00:00Z,29.1015,-89.9782,-9999.0,1111122 
WAVCIS,ioos:station:WAVCIS:CSI09:1,2015-12-02T23:00:00Z,29.1015,-89.9782,-9999.0,1111122 
WAVCIS,ioos:station:WAVCIS:CSI09:1,2015-12-03T00:00:00Z,29.1015,-89.9782,-9999.0,1111122 
WAVCIS,ioos:station:WAVCIS:CSI09:1,2015-12-03T01:00:00Z,29.1015,-89.9782,-9999.0,1111122 
WAVCIS,ioos:station:WAVCIS:CSI09:1,2015-12-03T02:00:00Z,29.1015,-89.9782,-9999.0,1111122 
WAVCIS,ioos:station:WAVCIS:CSI09:1,2015-12-03T03:00:00Z,29.1015,-89.9782,-9999.0,1111122 
WAVCIS,ioos:station:WAVCIS:CSI09:1,2015-12-03T04:00:00Z,29.1015,-89.9782,-9999.0,1111122 
WAVCIS,ioos:station:WAVCIS:CSI09:1,2015-12-03T05:00:00Z,29.1015,-89.9782,-9999.0,1111122 
WAVCIS,ioos:station:WAVCIS:CSI09:1,2015-12-03T06:00:00Z,29.1015,-89.9782,-9999.0,1111122 
WAVCIS,ioos:station:WAVCIS:CSI09:1,2015-12-03T07:00:00Z,29.1015,-89.9782,-9999.0,1111122 
WAVCIS,ioos:station:WAVCIS:CSI09:1,2015-12-03T08:00:00Z,29.1015,-89.9782,-9999.0,1111122 
WAVCIS,ioos:station:WAVCIS:CSI09:1,2015-12-03T09:00:00Z,29.1015,-89.9782,-9999.0,1111122 
WAVCIS,ioos:station:WAVCIS:CSI09:1,2015-12-03T10:00:00Z,29.1015,-89.9782,-9999.0,1111122 
WAVCIS,ioos:station:WAVCIS:CSI09:1,2015-12-03T11:00:00Z,29.1015,-89.9782,-9999.0,1111122 
WAVCIS,ioos:station:WAVCIS:CSI09:1,2015-12-03T12:00:00Z,29.1015,-89.9782,-9999.0,1111122 
WAVCIS,ioos:station:WAVCIS:CSI09:1,2015-12-03T13:00:00Z,29.1015,-89.9782,-9999.0,1111122 
WAVCIS,ioos:station:WAVCIS:CSI09:1,2015-12-03T14:00:00Z,29.1015,-89.9782,-9999.0,1111122 
WAVCIS,ioos:station:WAVCIS:CSI09:1,2015-12-03T15:00:00Z,29.1015,-89.9782,-9999.0,1111122 
WAVCIS,ioos:station:WAVCIS:CSI09:1,2015-12-03T16:00:00Z,29.1015,-89.9782,-9999.0,1111122 
WAVCIS,ioos:station:WAVCIS:CSI09:1,2015-12-03T17:00:00Z,29.1015,-89.9782,-9999.0,1111122 
WAVCIS,ioos:station:WAVCIS:CSI09:1,2015-12-03T18:00:00Z,29.1015,-89.9782,-9999.0,1111122 
WAVCIS,ioos:station:WAVCIS:CSI09:1,2015-12-03T19:00:00Z,29.1015,-89.9782,-9999.0,1111122 
WAVCIS,ioos:station:WAVCIS:CSI09:1,2015-12-03T20:00:00Z,29.1015,-89.9782,-9999.0,1111122 
WAVCIS,ioos:station:WAVCIS:CSI09:1,2015-12-03T21:00:00Z,29.1015,-89.9782,-9999.0,1111122 
WAVCIS,ioos:station:WAVCIS:CSI09:1,2015-12-03T22:00:00Z,29.1015,-89.9782,-9999.0,1111122 
WAVCIS,ioos:station:WAVCIS:CSI09:1,2015-12-03T23:00:00Z,29.1015,-89.9782,-9999.0,1111122 
WAVCIS,ioos:station:WAVCIS:CSI09:1,2015-12-04T00:00:00Z,29.1015,-89.9782,-9999.0,1111122 
WAVCIS,ioos:station:WAVCIS:CSI09:1,2015-12-04T01:00:00Z,29.1015,-89.9782,-9999.0,1111122 
WAVCIS,ioos:station:WAVCIS:CSI09:1,2015-12-04T02:00:00Z,29.1015,-89.9782,-9999.0,1111122 
WAVCIS,ioos:station:WAVCIS:CSI09:1,2015-12-04T03:00:00Z,29.1015,-89.9782,-9999.0,1111122 
WAVCIS,ioos:station:WAVCIS:CSI09:1,2015-12-04T04:00:00Z,29.1015,-89.9782,-9999.0,1111122 
WAVCIS,ioos:station:WAVCIS:CSI09:1,2015-12-04T05:00:00Z,29.1015,-89.9782,-9999.0,1111122 
WAVCIS,ioos:station:WAVCIS:CSI09:1,2015-12-04T06:00:00Z,29.1015,-89.9782,-9999.0,1111122 
WAVCIS,ioos:station:WAVCIS:CSI09:1,2015-12-04T07:00:00Z,29.1015,-89.9782,-9999.0,1111122 
WAVCIS,ioos:station:WAVCIS:CSI09:1,2015-12-04T08:00:00Z,29.1015,-89.9782,-9999.0,1111122 
WAVCIS,ioos:station:WAVCIS:CSI09:1,2015-12-04T09:00:00Z,29.1015,-89.9782,-9999.0,1111122 
WAVCIS,ioos:station:WAVCIS:CSI09:1,2015-12-04T10:00:00Z,29.1015,-89.9782,-9999.0,1111122 
WAVCIS,ioos:station:WAVCIS:CSI09:1,2015-12-04T11:00:00Z,29.1015,-89.9782,-9999.0,1111122 
WAVCIS,ioos:station:WAVCIS:CSI09:1,2015-12-04T12:00:00Z,29.1015,-89.9782,-9999.0,1111122 
WAVCIS,ioos:station:WAVCIS:CSI09:1,2015-12-04T13:00:00Z,29.1015,-89.9782,-9999.0,1111122 
WAVCIS,ioos:station:WAVCIS:CSI09:1,2015-12-04T14:00:00Z,29.1015,-89.9782,-9999.0,1111122 
WAVCIS,ioos:station:WAVCIS:CSI09:1,2015-12-04T15:00:00Z,29.1015,-89.9782,-9999.0,1111122 
WAVCIS,ioos:station:WAVCIS:CSI09:1,2015-12-04T16:00:00Z,29.1015,-89.9782,-9999.0,1111122 
WAVCIS,ioos:station:WAVCIS:CSI09:1,2015-12-04T17:00:00Z,29.1015,-89.9782,-9999.0,1111122 
WAVCIS,ioos:station:WAVCIS:CSI09:1,2015-12-04T18:00:00Z,29.1015,-89.9782,-9999.0,1111122 
WAVCIS,ioos:station:WAVCIS:CSI09:1,2015-12-04T19:00:00Z,29.1015,-89.9782,-9999.0,1111122 
WAVCIS,ioos:station:WAVCIS:CSI09:1,2015-12-04T20:00:00Z,29.1015,-89.9782,-9999.0,1111122 
WAVCIS,ioos:station:WAVCIS:CSI09:1,2015-12-04T21:00:00Z,29.1015,-89.9782,-9999.0,1111122 
WAVCIS,ioos:station:WAVCIS:CSI09:1,2015-12-04T22:00:00Z,29.1015,-89.9782,-9999.0,1111122 
WAVCIS,ioos:station:WAVCIS:CSI09:1,2015-12-04T23:00:00Z,29.1015,-89.9782,-9999.0,1111122 
WAVCIS,ioos:station:WAVCIS:CSI09:1,2015-12-05T00:00:00Z,29.1015,-89.9782,-9999.0,1111122 
WAVCIS,ioos:station:WAVCIS:CSI09:1,2015-12-05T01:00:00Z,29.1015,-89.9782,-9999.0,1111122 
WAVCIS,ioos:station:WAVCIS:CSI09:1,2015-12-05T02:00:00Z,29.1015,-89.9782,-9999.0,1111122 
WAVCIS,ioos:station:WAVCIS:CSI09:1,2015-12-05T03:00:00Z,29.1015,-89.9782,-9999.0,1111122 
WAVCIS,ioos:station:WAVCIS:CSI09:1,2015-12-05T04:00:00Z,29.1015,-89.9782,-9999.0,1111122 
WAVCIS,ioos:station:WAVCIS:CSI09:1,2015-12-05T05:00:00Z,29.1015,-89.9782,-9999.0,1111122 
WAVCIS,ioos:station:WAVCIS:CSI09:1,2015-12-05T06:00:00Z,29.1015,-89.9782,-9999.0,1111122 
WAVCIS,ioos:station:WAVCIS:CSI09:1,2015-12-05T07:00:00Z,29.1015,-89.9782,-9999.0,1111122 
WAVCIS,ioos:station:WAVCIS:CSI09:1,2015-12-05T08:00:00Z,29.1015,-89.9782,-9999.0,1111122 
WAVCIS,ioos:station:WAVCIS:CSI09:1,2015-12-05T09:00:00Z,29.1015,-89.9782,-9999.0,1111122 
WAVCIS,ioos:station:WAVCIS:CSI09:1,2015-12-05T10:00:00Z,29.1015,-89.9782,-9999.0,1111122 
WAVCIS,ioos:station:WAVCIS:CSI09:1,2015-12-05T11:00:00Z,29.1015,-89.9782,-9999.0,1111122 
WAVCIS,ioos:station:WAVCIS:CSI09:1,2015-12-05T12:00:00Z,29.1015,-89.9782,-9999.0,1111122 
WAVCIS,ioos:station:WAVCIS:CSI09:1,2015-12-05T13:00:00Z,29.1015,-89.9782,-9999.0,1111122 
WAVCIS,ioos:station:WAVCIS:CSI09:1,2015-12-05T14:00:00Z,29.1015,-89.9782,-9999.0,1111122 
WAVCIS,ioos:station:WAVCIS:CSI09:1,2015-12-05T15:00:00Z,29.1015,-89.9782,-9999.0,1111122 
WAVCIS,ioos:station:WAVCIS:CSI09:1,2015-12-05T16:00:00Z,29.1015,-89.9782,-9999.0,1111122 
WAVCIS,ioos:station:WAVCIS:CSI09:1,2015-12-05T17:00:00Z,29.1015,-89.9782,-9999.0,1111122 
WAVCIS,ioos:station:WAVCIS:CSI09:1,2015-12-05T18:00:00Z,29.1015,-89.9782,-9999.0,1111122 
WAVCIS,ioos:station:WAVCIS:CSI09:1,2015-12-05T19:00:00Z,29.1015,-89.9782,-9999.0,1111122 
WAVCIS,ioos:station:WAVCIS:CSI09:1,2015-12-05T20:00:00Z,29.1015,-89.9782,-9999.0,1111122 
WAVCIS,ioos:station:WAVCIS:CSI09:1,2015-12-05T21:00:00Z,29.1015,-89.9782,-9999.0,1111122 
WAVCIS,ioos:station:WAVCIS:CSI09:1,2015-12-05T22:00:00Z,29.1015,-89.9782,-9999.0,1111122 
WAVCIS,ioos:station:WAVCIS:CSI09:1,2015-12-05T23:00:00Z,29.1015,-89.9782,-9999.0,1111122 
WAVCIS,ioos:station:WAVCIS:CSI09:1,2015-12-06T00:00:00Z,29.1015,-89.9782,-9999.0,1111122 
WAVCIS,ioos:station:WAVCIS:CSI09:1,2015-12-06T01:00:00Z,29.1015,-89.9782,-9999.0,1111122 
WAVCIS,ioos:station:WAVCIS:CSI09:1,2015-12-06T02:00:00Z,29.1015,-89.9782,-9999.0,1111122 
WAVCIS,ioos:station:WAVCIS:CSI09:1,2015-12-06T03:00:00Z,29.1015,-89.9782,-9999.0,1111122 
WAVCIS,ioos:station:WAVCIS:CSI09:1,2015-12-06T04:00:00Z,29.1015,-89.9782,-9999.0,1111122 
WAVCIS,ioos:station:WAVCIS:CSI09:1,2015-12-06T05:00:00Z,29.1015,-89.9782,-9999.0,1111122 
WAVCIS,ioos:station:WAVCIS:CSI09:1,2015-12-06T06:00:00Z,29.1015,-89.9782,-9999.0,1111122 
WAVCIS,ioos:station:WAVCIS:CSI09:1,2015-12-06T07:00:00Z,29.1015,-89.9782,-9999.0,1111122 
WAVCIS,ioos:station:WAVCIS:CSI09:1,2015-12-06T08:00:00Z,29.1015,-89.9782,-9999.0,1111122 
WAVCIS,ioos:station:WAVCIS:CSI09:1,2015-12-06T09:00:00Z,29.1015,-89.9782,-9999.0,1111122 
WAVCIS,ioos:station:WAVCIS:CSI09:1,2015-12-06T10:00:00Z,29.1015,-89.9782,-9999.0,1111122 
WAVCIS,ioos:station:WAVCIS:CSI09:1,2015-12-06T11:00:00Z,29.1015,-89.9782,-9999.0,1111122 
WAVCIS,ioos:station:WAVCIS:CSI09:1,2015-12-06T12:00:00Z,29.1015,-89.9782,-9999.0,1111122 
WAVCIS,ioos:station:WAVCIS:CSI09:1,2015-12-06T13:00:00Z,29.1015,-89.9782,-9999.0,1111122 
WAVCIS,ioos:station:WAVCIS:CSI09:1,2015-12-06T14:00:00Z,29.1015,-89.9782,-9999.0,1111122 
WAVCIS,ioos:station:WAVCIS:CSI09:1,2015-12-06T15:00:00Z,29.1015,-89.9782,-9999.0,1111122 
WAVCIS,ioos:station:WAVCIS:CSI09:1,2015-12-06T16:00:00Z,29.1015,-89.9782,-9999.0,1111122 
WAVCIS,ioos:station:WAVCIS:CSI09:1,2015-12-06T17:00:00Z,29.1015,-89.9782,-9999.0,1111122 
WAVCIS,ioos:station:WAVCIS:CSI09:1,2015-12-06T18:00:00Z,29.1015,-89.9782,-9999.0,1111122 
WAVCIS,ioos:station:WAVCIS:CSI09:1,2015-12-06T19:00:00Z,29.1015,-89.9782,-9999.0,1111122 
WAVCIS,ioos:station:WAVCIS:CSI09:1,2015-12-06T20:00:00Z,29.1015,-89.9782,-9999.0,1111122 
WAVCIS,ioos:station:WAVCIS:CSI09:1,2015-12-06T21:00:00Z,29.1015,-89.9782,-9999.0,1111122 
WAVCIS,ioos:station:WAVCIS:CSI09:1,2015-12-06T22:00:00Z,29.1015,-89.9782,-9999.0,1111122 
WAVCIS,ioos:station:WAVCIS:CSI09:1,2015-12-06T23:00:00Z,29.1015,-89.9782,-9999.0,1111122 
WAVCIS,ioos:station:WAVCIS:CSI09:1,2015-12-07T00:00:00Z,29.1015,-89.9782,-9999.0,1111122 
WAVCIS,ioos:station:WAVCIS:CSI09:1,2015-12-07T01:00:00Z,29.1015,-89.9782,-9999.0,1111122 
WAVCIS,ioos:station:WAVCIS:CSI09:1,2015-12-07T02:00:00Z,29.1015,-89.9782,-9999.0,1111122 
WAVCIS,ioos:station:WAVCIS:CSI09:1,2015-12-07T03:00:00Z,29.1015,-89.9782,-9999.0,1111122 
WAVCIS,ioos:station:WAVCIS:CSI09:1,2015-12-07T04:00:00Z,29.1015,-89.9782,-9999.0,1111122 
WAVCIS,ioos:station:WAVCIS:CSI09:1,2015-12-07T05:00:00Z,29.1015,-89.9782,-9999.0,1111122 
WAVCIS,ioos:station:WAVCIS:CSI09:1,2015-12-07T06:00:00Z,29.1015,-89.9782,-9999.0,1111122 
WAVCIS,ioos:station:WAVCIS:CSI09:1,2015-12-07T07:00:00Z,29.1015,-89.9782,-9999.0,1111122 
WAVCIS,ioos:station:WAVCIS:CSI09:1,2015-12-07T08:00:00Z,29.1015,-89.9782,-9999.0,1111122 
WAVCIS,ioos:station:WAVCIS:CSI09:1,2015-12-07T09:00:00Z,29.1015,-89.9782,-9999.0,1111122 
WAVCIS,ioos:station:WAVCIS:CSI09:1,2015-12-07T10:00:00Z,29.1015,-89.9782,-9999.0,1111122 
WAVCIS,ioos:station:WAVCIS:CSI09:1,2015-12-07T11:00:00Z,29.1015,-89.9782,-9999.0,1111122 
WAVCIS,ioos:station:WAVCIS:CSI09:1,2015-12-07T12:00:00Z,29.1015,-89.9782,-9999.0,1111122 
WAVCIS,ioos:station:WAVCIS:CSI09:1,2015-12-07T13:00:00Z,29.1015,-89.9782,-9999.0,1111122 
WAVCIS,ioos:station:WAVCIS:CSI09:1,2015-12-07T14:00:00Z,29.1015,-89.9782,-9999.0,1111122 
WAVCIS,ioos:station:WAVCIS:CSI09:1,2015-12-07T15:00:00Z,29.1015,-89.9782,-9999.0,1111122 
WAVCIS,ioos:station:WAVCIS:CSI09:1,2015-12-07T16:00:00Z,29.1015,-89.9782,-9999.0,1111122 
WAVCIS,ioos:station:WAVCIS:CSI09:1,2015-12-07T17:00:00Z,29.1015,-89.9782,-9999.0,1111122 
WAVCIS,ioos:station:WAVCIS:CSI09:1,2015-12-07T18:00:00Z,29.1015,-89.9782,-9999.0,1111122 
WAVCIS,ioos:station:WAVCIS:CSI09:1,2015-12-07T19:00:00Z,29.1015,-89.9782,-9999.0,1111122 
WAVCIS,ioos:station:WAVCIS:CSI09:1,2015-12-07T20:00:00Z,29.1015,-89.9782,-9999.0,1111122 
WAVCIS,ioos:station:WAVCIS:CSI09:1,2015-12-07T21:00:00Z,29.1015,-89.9782,-9999.0,1111122 
WAVCIS,ioos:station:WAVCIS:CSI09:1,2015-12-07T22:00:00Z,29.1015,-89.9782,-9999.0,1111122 
WAVCIS,ioos:station:WAVCIS:CSI09:1,2015-12-07T23:00:00Z,29.1015,-89.9782,-9999.0,1111122 
WAVCIS,ioos:station:WAVCIS:CSI09:1,2015-12-08T00:00:00Z,29.1015,-89.9782,-9999.0,1111122 
WAVCIS,ioos:station:WAVCIS:CSI09:1,2015-12-08T01:00:00Z,29.1015,-89.9782,-9999.0,1111122 
WAVCIS,ioos:station:WAVCIS:CSI09:1,2015-12-08T02:00:00Z,29.1015,-89.9782,-9999.0,1111122 
WAVCIS,ioos:station:WAVCIS:CSI09:1,2015-12-08T03:00:00Z,29.1015,-89.9782,-9999.0,1111122 
WAVCIS,ioos:station:WAVCIS:CSI09:1,2015-12-08T04:00:00Z,29.1015,-89.9782,-9999.0,1111122 
WAVCIS,ioos:station:WAVCIS:CSI09:1,2015-12-08T05:00:00Z,29.1015,-89.9782,-9999.0,1111122 
WAVCIS,ioos:station:WAVCIS:CSI09:1,2015-12-08T06:00:00Z,29.1015,-89.9782,-9999.0,1111122 
WAVCIS,ioos:station:WAVCIS:CSI09:1,2015-12-08T07:00:00Z,29.1015,-89.9782,-9999.0,1111122 
WAVCIS,ioos:station:WAVCIS:CSI09:1,2015-12-08T08:00:00Z,29.1015,-89.9782,-9999.0,1111122 
WAVCIS,ioos:station:WAVCIS:CSI09:1,2015-12-08T09:00:00Z,29.1015,-89.9782,-9999.0,1111122 
WAVCIS,ioos:station:WAVCIS:CSI09:1,2015-12-08T10:00:00Z,29.1015,-89.9782,-9999.0,1111122 
WAVCIS,ioos:station:WAVCIS:CSI09:1,2015-12-08T11:00:00Z,29.1015,-89.9782,-9999.0,1111122 
WAVCIS,ioos:station:WAVCIS:CSI09:1,2015-12-08T12:00:00Z,29.1015,-89.9782,-9999.0,1111122 
WAVCIS,ioos:station:WAVCIS:CSI09:1,2015-12-08T13:00:00Z,29.1015,-89.9782,-9999.0,1111122 
WAVCIS,ioos:station:WAVCIS:CSI09:1,2015-12-08T14:00:00Z,29.1015,-89.9782,-9999.0,1111122 
WAVCIS,ioos:station:WAVCIS:CSI09:1,2015-12-08T15:00:00Z,29.1015,-89.9782,-9999.0,1111122 
WAVCIS,ioos:station:WAVCIS:CSI09:1,2015-12-08T16:00:00Z,29.1015,-89.9782,-9999.0,1111122 
WAVCIS,ioos:station:WAVCIS:CSI09:1,2015-12-08T17:00:00Z,29.1015,-89.9782,-9999.0,1111122 
WAVCIS,ioos:station:WAVCIS:CSI09:1,2015-12-08T18:00:00Z,29.1015,-89.9782,-9999.0,1111122 
WAVCIS,ioos:station:WAVCIS:CSI09:1,2015-12-08T19:00:00Z,29.1015,-89.9782,-9999.0,1111122 
WAVCIS,ioos:station:WAVCIS:CSI09:1,2015-12-08T20:00:00Z,29.1015,-89.9782,-9999.0,1111122 
WAVCIS,ioos:station:WAVCIS:CSI09:1,2015-12-08T21:00:00Z,29.1015,-89.9782,-9999.0,1111122 
WAVCIS,ioos:station:WAVCIS:CSI09:1,2015-12-08T22:00:00Z,29.1015,-89.9782,-9999.0,1111122 
WAVCIS,ioos:station:WAVCIS:CSI09:1,2015-12-08T23:00:00Z,29.1015,-89.9782,-9999.0,1111122 
WAVCIS,ioos:station:WAVCIS:CSI09:1,2015-12-09T00:00:00Z,29.1015,-89.9782,-9999.0,1111122 
WAVCIS,ioos:station:WAVCIS:CSI09:1,2015-12-09T01:00:00Z,29.1015,-89.9782,-9999.0,1111122 
WAVCIS,ioos:station:WAVCIS:CSI09:1,2015-12-09T02:00:00Z,29.1015,-89.9782,-9999.0,1111122 
WAVCIS,ioos:station:WAVCIS:CSI09:1,2015-12-09T03:00:00Z,29.1015,-89.9782,-9999.0,1111122 
WAVCIS,ioos:station:WAVCIS:CSI09:1,2015-12-09T04:00:00Z,29.1015,-89.9782,-9999.0,1111122 
WAVCIS,ioos:station:WAVCIS:CSI09:1,2015-12-09T05:00:00Z,29.1015,-89.9782,-9999.0,1111122 
WAVCIS,ioos:station:WAVCIS:CSI09:1,2015-12-09T06:00:00Z,29.1015,-89.9782,-9999.0,1111122 
WAVCIS,ioos:station:WAVCIS:CSI09:1,2015-12-09T07:00:00Z,29.1015,-89.9782,-9999.0,1111122 
WAVCIS,ioos:station:WAVCIS:CSI09:1,2015-12-09T08:00:00Z,29.1015,-89.9782,-9999.0,1111122 
WAVCIS,ioos:station:WAVCIS:CSI09:1,2015-12-09T09:00:00Z,29.1015,-89.9782,-9999.0,1111122 
WAVCIS,ioos:station:WAVCIS:CSI09:1,2015-12-09T10:00:00Z,29.1015,-89.9782,-9999.0,1111122 
WAVCIS,ioos:station:WAVCIS:CSI09:1,2015-12-09T11:00:00Z,29.1015,-89.9782,-9999.0,1111122 
WAVCIS,ioos:station:WAVCIS:CSI09:1,2015-12-09T12:00:00Z,29.1015,-89.9782,-9999.0,1111122 
WAVCIS,ioos:station:WAVCIS:CSI09:1,2015-12-09T13:00:00Z,29.1015,-89.9782,-9999.0,1111122 
WAVCIS,ioos:station:WAVCIS:CSI09:1,2015-12-09T14:00:00Z,29.1015,-89.9782,-9999.0,1111122 
WAVCIS,ioos:station:WAVCIS:CSI09:1,2015-12-09T15:00:00Z,29.1015,-89.9782,-9999.0,1111122 
WAVCIS,ioos:station:WAVCIS:CSI09:1,2015-12-09T16:00:00Z,29.1015,-89.9782,-9999.0,1111122 
WAVCIS,ioos:station:WAVCIS:CSI09:1,2015-12-09T17:00:00Z,29.1015,-89.9782,0.557,1111122 
WAVCIS,ioos:station:WAVCIS:CSI09:1,2015-12-09T17:00:00Z,29.1015,-89.9782,0.557,11111222 
WAVCIS,ioos:station:WAVCIS:CSI09:1,2015-12-09T18:00:00Z,29.1015,-89.9782,0.605,1111122 
WAVCIS,ioos:station:WAVCIS:CSI09:1,2015-12-09T18:00:00Z,29.1015,-89.9782,0.605,11111222 
WAVCIS,ioos:station:WAVCIS:CSI09:1,2015-12-09T19:00:00Z,29.1015,-89.9782,0.653,1111122 
WAVCIS,ioos:station:WAVCIS:CSI09:1,2015-12-09T19:00:00Z,29.1015,-89.9782,0.653,11111222 
WAVCIS,ioos:station:WAVCIS:CSI09:1,2015-12-09T20:00:00Z,29.1015,-89.9782,0.684,1111122 
WAVCIS,ioos:station:WAVCIS:CSI09:1,2015-12-09T20:00:00Z,29.1015,-89.9782,0.684,11111222 
WAVCIS,ioos:station:WAVCIS:CSI09:1,2015-12-09T21:00:00Z,29.1015,-89.9782,0.715,1111122 
WAVCIS,ioos:station:WAVCIS:CSI09:1,2015-12-09T21:00:00Z,29.1015,-89.9782,0.715,11111222 
WAVCIS,ioos:station:WAVCIS:CSI09:1,2015-12-09T22:00:00Z,29.1015,-89.9782,0.75,1111122 
WAVCIS,ioos:station:WAVCIS:CSI09:1,2015-12-09T22:00:00Z,29.1015,-89.9782,0.75,11111222 
WAVCIS,ioos:station:WAVCIS:CSI09:1,2015-12-09T23:00:00Z,29.1015,-89.9782,0.776,1111122 
WAVCIS,ioos:station:WAVCIS:CSI09:1,2015-12-09T23:00:00Z,29.1015,-89.9782,0.776,11111222 
WAVCIS,ioos:station:WAVCIS:CSI09:1,2015-12-10T00:00:00Z,29.1015,-89.9782,0.792,1111122 
WAVCIS,ioos:station:WAVCIS:CSI09:1,2015-12-10T00:00:00Z,29.1015,-89.9782,0.792,11111222 
WAVCIS,ioos:station:WAVCIS:CSI09:1,2015-12-10T01:00:00Z,29.1015,-89.9782,0.792,1111122 
WAVCIS,ioos:station:WAVCIS:CSI09:1,2015-12-10T01:00:00Z,29.1015,-89.9782,0.792,11111222 
WAVCIS,ioos:station:WAVCIS:CSI09:1,2015-12-10T02:00:00Z,29.1015,-89.9782,0.77,1111122 
WAVCIS,ioos:station:WAVCIS:CSI09:1,2015-12-10T02:00:00Z,29.1015,-89.9782,0.77,11111222 
WAVCIS,ioos:station:WAVCIS:CSI09:1,2015-12-10T03:00:00Z,29.1015,-89.9782,0.746,1111122 
WAVCIS,ioos:station:WAVCIS:CSI09:1,2015-12-10T03:00:00Z,29.1015,-89.9782,0.746,11111222 
WAVCIS,ioos:station:WAVCIS:CSI09:1,2015-12-10T04:00:00Z,29.1015,-89.9782,0.702,1111122 
WAVCIS,ioos:station:WAVCIS:CSI09:1,2015-12-10T04:00:00Z,29.1015,-89.9782,0.702,11111222 
WAVCIS,ioos:station:WAVCIS:CSI09:1,2015-12-10T05:00:00Z,29.1015,-89.9782,0.636,1111122 
WAVCIS,ioos:station:WAVCIS:CSI09:1,2015-12-10T05:00:00Z,29.1015,-89.9782,0.636,11111222 
WAVCIS,ioos:station:WAVCIS:CSI09:1,2015-12-10T06:00:00Z,29.1015,-89.9782,0.564,1111122 
WAVCIS,ioos:station:WAVCIS:CSI09:1,2015-12-10T06:00:00Z,29.1015,-89.9782,0.564,11111222 
WAVCIS,ioos:station:WAVCIS:CSI09:1,2015-12-10T07:00:00Z,29.1015,-89.9782,0.488,1111122 
WAVCIS,ioos:station:WAVCIS:CSI09:1,2015-12-10T07:00:00Z,29.1015,-89.9782,0.488,11111222 
WAVCIS,ioos:station:WAVCIS:CSI09:1,2015-12-10T08:00:00Z,29.1015,-89.9782,0.421,1111122 
WAVCIS,ioos:station:WAVCIS:CSI09:1,2015-12-10T08:00:00Z,29.1015,-89.9782,0.421,11111222 
WAVCIS,ioos:station:WAVCIS:CSI09:1,2015-12-10T09:00:00Z,29.1015,-89.9782,0.358,1111122 
WAVCIS,ioos:station:WAVCIS:CSI09:1,2015-12-10T09:00:00Z,29.1015,-89.9782,0.358,11111222 
WAVCIS,ioos:station:WAVCIS:CSI09:1,2015-12-10T10:00:00Z,29.1015,-89.9782,0.326,1111122 
WAVCIS,ioos:station:WAVCIS:CSI09:1,2015-12-10T10:00:00Z,29.1015,-89.9782,0.326,11111222 
WAVCIS,ioos:station:WAVCIS:CSI09:1,2015-12-10T11:00:00Z,29.1015,-89.9782,0.317,1111122 
WAVCIS,ioos:station:WAVCIS:CSI09:1,2015-12-10T11:00:00Z,29.1015,-89.9782,0.317,11111222 
WAVCIS,ioos:station:WAVCIS:CSI09:1,2015-12-10T12:00:00Z,29.1015,-89.9782,0.311,1111122 
WAVCIS,ioos:station:WAVCIS:CSI09:1,2015-12-10T12:00:00Z,29.1015,-89.9782,0.311,11111222 
WAVCIS,ioos:station:WAVCIS:CSI09:1,2015-12-10T13:00:00Z,29.1015,-89.9782,0.315,1111122 
WAVCIS,ioos:station:WAVCIS:CSI09:1,2015-12-10T13:00:00Z,29.1015,-89.9782,0.315,11111222 
WAVCIS,ioos:station:WAVCIS:CSI09:1,2015-12-10T14:00:00Z,29.1015,-89.9782,0.345,1111122 
WAVCIS,ioos:station:WAVCIS:CSI09:1,2015-12-10T14:00:00Z,29.1015,-89.9782,0.345,11111222 
WAVCIS,ioos:station:WAVCIS:CSI09:1,2015-12-10T15:00:00Z,29.1015,-89.9782,0.405,1111122 
WAVCIS,ioos:station:WAVCIS:CSI09:1,2015-12-10T15:00:00Z,29.1015,-89.9782,0.405,11111222 
WAVCIS,ioos:station:WAVCIS:CSI09:1,2015-12-10T16:00:00Z,29.1015,-89.9782,0.462,1111122 
WAVCIS,ioos:station:WAVCIS:CSI09:1,2015-12-10T16:00:00Z,29.1015,-89.9782,0.462,11111222 
WAVCIS,ioos:station:WAVCIS:CSI09:1,2015-12-10T17:00:00Z,29.1015,-89.9782,0.5,1111122 
WAVCIS,ioos:station:WAVCIS:CSI09:1,2015-12-10T17:00:00Z,29.1015,-89.9782,0.5,11111222 
WAVCIS,ioos:station:WAVCIS:CSI09:1,2015-12-10T18:00:00Z,29.1015,-89.9782,0.558,1111122 
WAVCIS,ioos:station:WAVCIS:CSI09:1,2015-12-10T18:00:00Z,29.1015,-89.9782,0.558,11111222 
WAVCIS,ioos:station:WAVCIS:CSI09:1,2015-12-10T19:00:00Z,29.1015,-89.9782,0.63,1111122 
WAVCIS,ioos:station:WAVCIS:CSI09:1,2015-12-10T19:00:00Z,29.1015,-89.9782,0.63,11111222 
WAVCIS,ioos:station:WAVCIS:CSI09:1,2015-12-10T20:00:00Z,29.1015,-89.9782,0.676,1111122 
WAVCIS,ioos:station:WAVCIS:CSI09:1,2015-12-10T20:00:00Z,29.1015,-89.9782,0.676,11111222 
WAVCIS,ioos:station:WAVCIS:CSI09:1,2015-12-10T21:00:00Z,29.1015,-89.9782,0.725,1111122 